Location: Unspecified
(0.0000°N, 0.0000°E)
Time: 00:06:06
(UTC+00:00)

Explorer 11/Cluster Stage 4 - Pass Details

Date: 20 December 2018
Orbit: 467 x 1260 km, 28.8° (Epoch: 18 January)

Event Time Altitude Azimuth Distance (km) Brightness Sun altitude
Rises 19:08:00 0° 241° (WSW) 4,188 12.1 -16.1°
Reaches altitude 10° 19:10:56 10° 241° (WSW) 3,234 11.1 -16.7°
Maximum altitude 19:19:16 83° 329° (NNW) 1,228 7.5 -18.6°
Enters shadow 19:23:33 30° 54° (NE) 1,947 8.0 -19.6°
